| time (UTC) | temp C | wind direction | speed KPH | gust KPH | rain 1hr cm | rain 24hr cm | rain mn cm | humidity % | barometer mb |
| 20260504191607 | 19 | 56 | 4.8 | 6.4 | 0.00 | 0.00 | 0.00 | 68 | 1012.0 |
| 20260504190607 | 19 | 56 | 4.8 | 6.4 | 0.00 | 0.00 | 0.00 | 68 | 1012.0 |
| 20260504185607 | 19 | 56 | 4.8 | 6.4 | 0.00 | 0.00 | 0.00 | 68 | 1012.0 |
| 20260504184607 | 19 | 3 | 9.7 | 16.1 | 0.00 | 0.00 | 0.00 | 68 | 1012.0 |
| 20260504183607 | 20 | 310 | 8.0 | 11.3 | 0.00 | 0.00 | 0.00 | 55 | 1011.0 |
| 20260504182607 | 20 | 310 | 8.0 | 11.3 | 0.00 | 0.00 | 0.00 | 55 | 1011.0 |
| 20260504181607 | 21 | 310 | 8.0 | 11.3 | 0.00 | 0.00 | 0.00 | 53 | 1011.0 |
| 20260504180607 | 21 | 310 | 8.0 | 11.3 | 0.00 | 0.00 | 0.00 | 63 | 1011.0 |
| 20260504175607 | 21 | 310 | 8.0 | 11.3 | 0.00 | 0.00 | 0.00 | 63 | 1011.0 |
| 20260504174607 | 21 | 310 | 8.0 | 11.3 | 0.00 | 0.00 | 0.00 | 62 | 1011.0 |
| 20260504173607 | 21 | 310 | 8.0 | 11.3 | 0.00 | 0.00 | 0.00 | 61 | 1012.0 |
| 20260504172607 | 22 | 203 | 6.4 | 12.9 | 0.00 | 0.00 | 0.00 | 49 | 1011.0 |
| 20260504171607 | 22 | 203 | 6.4 | 12.9 | 0.00 | 0.00 | 0.00 | 49 | 1011.0 |
| 20260504170607 | 22 | 203 | 6.4 | 12.9 | 0.00 | 0.00 | 0.00 | 49 | 1011.0 |
| 20260504150607 | 24 | 268 | 12.9 | 19.3 | 0.00 | 0.00 | 0.00 | 45 | 1012.0 |
| 20260504140607 | 25 | 277 | 14.5 | 22.5 | 0.00 | 0.00 | 0.00 | 47 | 1011.0 |
| 20260504130607 | 25 | 255 | 19.3 | 27.4 | 0.00 | 0.00 | 0.00 | 44 | 1011.0 |
| 20260504110607 | 23 | 252 | 16.1 | 19.3 | 0.00 | 0.00 | 0.00 | 44 | 1012.0 |
| 20260504100608 | 23 | 261 | 17.7 | 19.3 | 0.00 | 0.00 | 0.00 | 46 | 1012.0 |
| 20260504081608 | 21 | 273 | 12.9 | 19.3 | 0.00 | 0.00 | 0.00 | 48 | 1012.0 |
| 20260504080608 | 21 | 273 | 12.9 | 19.3 | 0.00 | 0.00 | 0.00 | 48 | 1012.0 |
| 20260504050607 | 15 | 230 | 9.7 | 17.7 | 0.00 | 0.00 | 0.00 | 68 | 1011.0 |
| 20260504045607 | 15 | 230 | 9.7 | 17.7 | 0.00 | 0.00 | 0.00 | 68 | 1011.0 |
| 20260504044607 | 15 | 230 | 9.7 | 17.7 | 0.00 | 0.00 | 0.00 | 69 | 1012.0 |
| 20260504043607 | 15 | 230 | 9.7 | 17.7 | 0.00 | 0.00 | 0.00 | 69 | 1012.0 |
| 20260504042607 | 13 | 234 | 9.7 | 16.1 | 0.00 | 0.00 | 0.00 | 63 | 1011.0 |
| 20260504041607 | 13 | 234 | 9.7 | 16.1 | 0.00 | 0.00 | 0.00 | 64 | 1011.0 |
| 20260504040607 | 13 | 234 | 9.7 | 16.1 | 0.00 | 0.00 | 0.00 | 64 | 1011.0 |
| 20260504035607 | 13 | 234 | 9.7 | 16.1 | 0.00 | 0.00 | 0.00 | 70 | 1011.0 |
| 20260504034607 | 13 | 234 | 9.7 | 16.1 | 0.00 | 0.00 | 0.00 | 70 | 1011.0 |
| 20260504033607 | 13 | 234 | 9.7 | 16.1 | 0.00 | 0.00 | 0.00 | 70 | 1011.0 |
| 20260504032607 | 13 | 198 | 11.3 | 14.5 | 0.00 | 0.00 | 0.00 | 62 | 1011.0 |
| 20260504031607 | 13 | 198 | 11.3 | 14.5 | 0.00 | 0.00 | 0.00 | 61 | 1011.0 |
| 20260504030607 | 13 | 198 | 11.3 | 14.5 | 0.00 | 0.00 | 0.00 | 61 | 1011.0 |
| 20260504025607 | 12 | 198 | 11.3 | 14.5 | 0.00 | 0.00 | 0.00 | 65 | 1011.0 |
| 20260504024607 | 13 | 198 | 11.3 | 14.5 | 0.00 | 0.00 | 0.00 | 64 | 1011.0 |
| 20260504023607 | 13 | 198 | 11.3 | 14.5 | 0.00 | 0.00 | 0.00 | 64 | 1011.0 |
| 20260504022607 | 13 | 156 | 8.0 | 8.0 | 0.00 | 0.00 | 0.00 | 58 | 1011.0 |
| 20260504021607 | 13 | 156 | 8.0 | 8.0 | 0.00 | 0.00 | 0.00 | 58 | 1011.0 |
| 20260504020607 | 13 | 156 | 8.0 | 8.0 | 0.00 | 0.00 | 0.00 | 62 | 1011.0 |
| 20260504015607 | 13 | 156 | 8.0 | 8.0 | 0.00 | 0.00 | 0.00 | 62 | 1011.0 |
| 20260504014607 | 13 | 156 | 8.0 | 8.0 | 0.00 | 0.00 | 0.00 | 60 | 1011.0 |
| 20260504013607 | 13 | 156 | 8.0 | 8.0 | 0.00 | 0.00 | 0.00 | 60 | 1011.0 |
| 20260504012607 | 14 | 240 | 6.4 | 4.8 | 0.00 | 0.00 | 0.00 | 54 | 1011.0 |
| 20260504011607 | 13 | 240 | 6.4 | 4.8 | 0.00 | 0.00 | 0.00 | 61 | 1012.0 |
| 20260504010607 | 13 | 240 | 6.4 | 4.8 | 0.00 | 0.00 | 0.00 | 61 | 1012.0 |
| 20260504005607 | 13 | 199 | 11.3 | 11.3 | 0.00 | 0.00 | 0.00 | 61 | 1012.0 |
| 20260504004607 | 13 | 199 | 11.3 | 11.3 | 0.00 | 0.00 | 0.00 | 60 | 1012.0 |
| 20260504003607 | 13 | 199 | 11.3 | 11.3 | 0.00 | 0.00 | 0.00 | 60 | 1012.0 |
| 20260504002607 | 14 | 217 | 11.3 | 16.1 | 0.00 | 0.00 | 0.00 | 51 | 1012.0 |
| 20260504001607 | 14 | 217 | 11.3 | 16.1 | 0.00 | 0.00 | 0.00 | 51 | 1012.0 |
| 20260504000607 | 14 | 217 | 11.3 | 16.1 | 0.00 | 0.00 | 0.00 | 51 | 1012.0 |
| 20260503235607 | 13 | 217 | 11.3 | 16.1 | 0.00 | 0.00 | 0.00 | 58 | 1012.0 |
| 20260503234607 | 13 | 217 | 11.3 | 16.1 | 0.00 | 0.00 | 0.00 | 57 | 1012.0 |
| 20260503233607 | 13 | 217 | 11.3 | 16.1 | 0.00 | 0.00 | 0.00 | 57 | 1012.0 |
| 20260503232607 | 15 | 224 | 12.9 | 24.1 | 0.00 | 0.00 | 0.00 | 48 | 1012.0 |
| 20260503231607 | 15 | 224 | 12.9 | 24.1 | 0.00 | 0.00 | 0.00 | 48 | 1012.0 |
| 20260503230607 | 14 | 224 | 12.9 | 24.1 | 0.00 | 0.00 | 0.00 | 57 | 1012.0 |
| 20260503225607 | 14 | 224 | 12.9 | 24.1 | 0.00 | 0.00 | 0.00 | 57 | 1012.0 |
| 20260503224607 | 15 | 224 | 12.9 | 24.1 | 0.00 | 0.00 | 0.00 | 57 | 1012.0 |
| 20260503223607 | 15 | 224 | 12.9 | 24.1 | 0.00 | 0.00 | 0.00 | 57 | 1012.0 |
| 20260503222607 | 16 | 197 | 12.9 | 30.6 | 0.00 | 0.00 | 0.00 | 46 | 1012.0 |
| 20260503221607 | 16 | 197 | 12.9 | 30.6 | 0.00 | 0.00 | 0.00 | 55 | 1012.0 |
| 20260503220607 | 16 | 197 | 12.9 | 30.6 | 0.00 | 0.00 | 0.00 | 55 | 1012.0 |
| 20260503215607 | 16 | 197 | 12.9 | 30.6 | 0.00 | 0.00 | 0.00 | 55 | 1012.0 |
| 20260503214607 | 16 | 197 | 12.9 | 30.6 | 0.00 | 0.00 | 0.00 | 54 | 1012.0 |
| 20260503213607 | 16 | 197 | 12.9 | 30.6 | 0.00 | 0.00 | 0.00 | 54 | 1012.0 |
| 20260503212607 | 17 | 191 | 14.5 | 38.6 | 0.00 | 0.00 | 0.00 | 42 | 1012.0 |
| 20260503211607 | 17 | 191 | 14.5 | 38.6 | 0.00 | 0.00 | 0.00 | 41 | 1012.0 |
| 20260503210607 | 17 | 191 | 14.5 | 38.6 | 0.00 | 0.00 | 0.00 | 51 | 1012.0 |
| 20260503205607 | 17 | 191 | 14.5 | 38.6 | 0.00 | 0.00 | 0.00 | 51 | 1012.0 |
| 20260503204607 | 17 | 191 | 14.5 | 38.6 | 0.00 | 0.00 | 0.00 | 51 | 1012.0 |
| 20260503203607 | 17 | 191 | 14.5 | 38.6 | 0.00 | 0.00 | 0.00 | 51 | 1012.0 |
| 20260503202607 | 19 | 191 | 16.1 | 33.8 | 0.00 | 0.00 | 0.00 | 39 | 1012.0 |
| 20260503201607 | 19 | 191 | 16.1 | 33.8 | 0.00 | 0.00 | 0.00 | 38 | 1012.0 |
| 20260503200607 | 19 | 191 | 16.1 | 33.8 | 0.00 | 0.00 | 0.00 | 49 | 1012.0 |
| 20260503195607 | 19 | 191 | 16.1 | 33.8 | 0.00 | 0.00 | 0.00 | 49 | 1012.0 |
| 20260503194607 | 19 | 191 | 16.1 | 33.8 | 0.00 | 0.00 | 0.00 | 48 | 1012.0 |
| 20260503193607 | 20 | 191 | 16.1 | 33.8 | 0.00 | 0.00 | 0.00 | 46 | 1012.0 |
| 20260503192607 | 20 | 179 | 17.7 | 33.8 | 0.00 | 0.00 | 0.00 | 33 | 1012.0 |